[[{"header":{"parameterUnit":"m.s-1","parameterCategory":1,"la1":30.2991,"la2":30.254,"lo1":-89.0895,"lo2":-89.0444,"dy":0.0017,"dx":0.0017,"nx":28,"ny":28,"refTime":"2024-05-21T21:00:00:Z","depth":0,"parameterNumber":2,"parameterNumberName":"U-component_of_WINDS"},"data":[0,0,0,0,0,0,0,0,0,0,0,0,0,0,0,0,0,0,0,0,0,0,0,0,0,0,0,0,0,0,0,0,0,0,0,0,0,0,0,0,0,0,0,0,0,0,0,0,0,0,0,0,0,0,0,0,0,0,-3.7155,-3.7155,0,-3.7151,-3.7151,-3.7151,-3.71,-3.7099,-3.7098,-3.7096,-3.7093,-3.7094,-3.7095,0,0,0,0,0,0,0,0,0,0,0,0,0,-3.7121,-3.7122,-3.7155,-3.7155,-3.7155,-3.7151,-3.7151,-3.7151,-3.71,-3.7099,-3.7097,-3.7096,-3.7092,-3.7094,-3.7095,0,0,0,0,0,0,0,0,0,0,0,0,0,-3.7129,-3.7123,-3.7155,-3.7129,-3.7127,-3.7151,-3.7151,-3.7151,-3.7101,-3.7099,-3.7097,-3.7095,-3.7092,-3.7094,-3.7095,-3.7144,0,0,-3.71,-3.7101,0,0,0,0,0,0,0,0,-3.7128,-3.713,-3.7133,-3.7131,-3.7128,-3.7124,-3.7138,-3.7148,-3.7101,-3.7111,-3.7096,-3.7094,-3.7105,-3.7105,-3.7109,-3.7144,-3.7143,-3.71,-3.7101,-3.7102,-3.7103,0,0,0,0,0,0,0,-3.7128,-3.713,-3.7153,-3.7133,-3.713,-3.7119,-3.7118,-3.7139,-3.7119,-3.711,-3.7106,-3.7106,-3.7103,-3.7107,-3.7108,-3.7143,-3.71,-3.7102,-3.7103,-3.7103,-3.7219,-3.7221,0,0,0,0,0,0,-3.7131,-3.713,-3.7153,-3.7153,-3.7124,-3.7121,-3.712,-3.7127,-3.7118,-3.7115,-3.7108,-3.7104,-3.7105,-3.7106,-3.7108,-3.7164,-3.7102,-3.7104,-3.7105,-3.7217,-3.722,-3.7222,0,0,0,0,0,0,-3.713,-3.7133,-3.7154,-3.714,-3.7142,-3.7123,-3.7133,-3.7128,-3.7132,-3.7117,-3.7113,-3.7116,-3.7104,-3.7106,-3.7135,-3.7163,-3.7104,-3.7106,-3.7215,-3.7218,-3.7221,-3.7277,0,0,0,0,0,0,-3.7129,-3.7133,-3.7151,-3.7141,-3.7143,-3.718,-3.7134,-3.713,-3.7135,-3.713,-3.7123,-3.712,-3.7103,-3.7133,-3.7137,-3.7164,-3.7107,-3.7212,-3.7216,-3.722,-3.7272,-3.7281,-3.7289,0,0,0,0,0,-3.7128,-3.7167,-3.7152,-3.7155,-3.7164,-3.7182,-3.7183,-3.7162,-3.7138,-3.7155,-3.7146,-3.712,-3.716,-3.7137,-3.7141,-3.7169,-3.721,-3.7215,-3.7219,-3.7268,-3.728,-3.7289,0,0,0,0,0,0,-3.7179,-3.7165,-3.7148,-3.7184,-3.7185,-3.7174,-3.7195,-3.7174,-3.7182,-3.7177,-3.7151,-3.715,-3.7183,-3.7179,-3.7154,-3.7216,-3.7181,-3.7187,-3.7217,-3.7227,-3.7236,-3.7235,-3.7108,0,0,0,0,0,-3.7195,-3.721,-3.7197,-3.723,-3.7231,-3.7214,-3.722,-3.7204,-3.7204,-3.7204,-3.7196,-3.7197,-3.721,-3.7219,-3.723,-3.7273,-3.727,-3.7294,-3.7303,-3.731,-3.7314,-3.7337,-3.7348,-3.7237,-3.7237,-3.7237,0,0,-3.7227,-3.7221,-3.7232,-3.724,-3.7239,-3.7256,-3.7214,-3.7233,-3.7246,-3.7207,-3.7234,-3.7229,-3.7229,-3.7266,-3.7281,-3.7263,-3.7345,-3.7316,-3.7321,-3.7322,-3.7343,-3.7354,-3.7363,-3.724,-3.724,-3.7239,0,0,-3.7293,-3.729,-3.7318,-3.7318,-3.7316,-3.7305,-3.7312,-3.7304,-3.7299,-3.7327,-3.7298,-3.7314,-3.7336,-3.7337,-3.734,-3.7411,-3.7388,-3.7416,-3.7459,-3.7482,-3.749,-3.7498,-3.7522,-3.7532,-3.7421,-3.7421,-3.7421,0,-3.7332,-3.7356,-3.7335,-3.7356,-3.7361,-3.7328,-3.7356,-3.7358,-3.736,-3.7364,-3.7345,-3.7373,-3.737,-3.7407,-3.7425,-3.7429,-3.7436,-3.7415,-3.7491,-3.7498,-3.7505,-3.7528,-3.7537,-3.7424,-3.7424,-3.7423,-3.7423,0,-3.7405,-3.7422,-3.7445,-3.7448,-3.7456,-3.7481,-3.7464,-3.7475,-3.746,-3.7451,-3.748,-3.7476,-3.7486,-3.7494,-3.7479,-3.7529,-3.7518,-3.7495,-3.7459,-3.7519,-3.754,-3.7549,-3.7429,-3.7428,-3.7427,-3.7426,0,0,-3.75,-3.7493,-3.7502,-3.7503,-3.7501,-3.7514,-3.7539,-3.7549,-3.7559,-3.7563,-3.7583,-3.7604,-3.7583,-3.7587,-3.7572,-3.7593,-3.7649,-3.7567,-3.7567,-3.7582,-3.7704,-3.772,-3.7731,-3.7635,-3.7636,-3.7638,-3.7704,0,-3.7563,-3.7603,-3.7586,-3.7628,-3.7644,-3.7615,-3.7636,-3.7638,-3.7631,-3.7644,-3.7637,-3.7652,-3.7624,-3.7626,-3.7645,-3.7638,-3.7673,-3.7633,-3.7652,-3.7653,-3.7651,-3.7742,-3.7758,-3.7821,-3.7712,-3.7714,-3.7715,0,-3.7641,-3.7648,-3.7692,-3.7689,-3.7695,-3.7714,-3.7723,-3.7736,-3.7738,-3.7732,-3.7738,-3.772,-3.7744,-3.771,-3.7744,-3.7718,-3.7725,-3.7723,-3.7725,-3.7724,-3.7686,-3.7742,-3.784,-3.7849,-3.7728,-3.7727,-3.7726,0,-3.7704,-3.7726,-3.7755,-3.7758,-3.7755,-3.7769,-3.7769,-3.7769,-3.7777,-3.7785,-3.779,-3.7801,-3.7807,-3.7816,-3.7802,-3.7778,-3.7838,-3.7803,-3.7833,-3.7834,-3.7845,-3.7844,-3.7944,-3.7853,-3.7853,-3.7853,-3.7852,0,-3.7775,-3.7803,-3.7784,-3.7802,-3.7833,-3.7814,-3.7845,-3.7842,-3.7843,-3.786,-3.7836,-3.7853,-3.7833,-3.7849,-3.7838,-3.7868,-3.7871,-3.7866,-3.7863,-3.7867,-3.7868,-3.787,-3.7865,-3.7855,-3.7854,-3.7854,-3.7854,0,-3.785,-3.7838,-3.7868,-3.7864,-3.7864,-3.7886,-3.7883,-3.7899,-3.7892,-3.7915,-3.7919,-3.7908,-3.7925,-3.7912,-3.7928,-3.7921,-3.796,-3.7951,-3.7959,-3.7956,-3.7987,-3.7984,-3.8091,-3.8103,-3.8006,-3.8007,-3.8008,0,-3.7895,-3.7916,-3.7914,-3.7924,-3.7925,-3.7942,-3.795,-3.7933,-3.7943,-3.7948,-3.7965,-3.798,-3.7991,-3.802,-3.8013,-3.8026,-3.8017,-3.8053,-3.8018,-3.8023,-3.8016,-3.8014,-3.8016,-3.806,-3.8061,-3.8062,-3.8062,0,-3.7976,-3.797,-3.7982,-3.7994,-3.8005,-3.8013,-3.8019,-3.8029,-3.8012,-3.8025,-3.8042,-3.8051,-3.8069,-3.8084,-3.8095,-3.8095,-3.8076,-3.8074,-3.8082,-3.8085,-3.8089,-3.8086,-3.7977,-3.8071,-3.807,-3.807,-3.8069,-3.8069,-3.8036,-3.8054,-3.8056,-3.8071,-3.8075,-3.8082,-3.8097,-3.8093,-3.8107,-3.812,-3.8111,-3.8131,-3.8135,-3.8148,-3.8151,-3.8167,-3.8152,-3.8163,-3.8166,-3.8169,-3.8172,-3.8088,-3.817,-3.8169,-3.8169,-3.8169,-3.8169,0,-3.8115,-3.8116,-3.813,-3.814,-3.8153,-3.8136,-3.8142,-3.8154,-3.8172,-3.8178,-3.8189,-3.821,-3.8226,-3.8222,-3.8236,-3.825,-3.8242,-3.8254,-3.8252,-3.8252,-3.8186,-3.8177,-3.8261,-3.8261,-3.8261,-3.8261,-3.8261,-3.8261,-3.8157,-3.8186,-3.8181,-3.8212,-3.8212,-3.8233,-3.8238,-3.8245,-3.8249,-3.8273,-3.8286,-3.8284,-3.8286,-3.83,-3.8314,-3.8313,-3.8318,-3.8334,-3.8329,-3.8266,-3.8257,-3.8248,-3.824,-3.8336,-3.8336,-3.8394,-3.8395,-3.8395]},{"header":{"parameterUnit":"m.s-1","parameterCategory":1,"la1":30.2991,"la2":30.254,"lo1":-89.0895,"lo2":-89.0444,"dy":0.0017,"dx":0.0017,"nx":28,"ny":28,"refTime":"2024-05-21T21:00:00:Z","depth":0,"parameterNumber":3,"parameterNumberName":"V-component_of_WINDS"},"data":[0,0,0,0,0,0,0,0,0,0,0,0,0,0,0,0,0,0,0,0,0,0,0,0,0,0,0,0,0,0,0,0,0,0,0,0,0,0,0,0,0,0,0,0,0,0,0,0,0,0,0,0,0,0,0,0,0,0,2.9685,2.9685,0,2.9685,2.9685,2.9685,2.9716,2.9717,2.9718,2.9719,2.9714,2.9713,2.9712,0,0,0,0,0,0,0,0,0,0,0,0,0,2.971,2.971,2.9685,2.9685,2.9685,2.9685,2.9685,2.9685,2.9716,2.9717,2.9718,2.9719,2.9714,2.9713,2.9712,0,0,0,0,0,0,0,0,0,0,0,0,0,2.9703,2.9709,2.9685,2.9701,2.9702,2.9685,2.9685,2.9685,2.9716,2.9717,2.9718,2.9719,2.9714,2.9713,2.9712,2.9678,0,0,2.9708,2.9707,0,0,0,0,0,0,0,0,2.9704,2.9702,2.9699,2.97,2.9701,2.9702,2.9692,2.9683,2.9715,2.971,2.9719,2.972,2.9709,2.9708,2.9705,2.9678,2.9678,2.9707,2.9707,2.9706,2.9706,0,0,0,0,0,0,0,2.9704,2.9703,2.9685,2.9699,2.97,2.9707,2.9707,2.969,2.9702,2.9711,2.9713,2.9713,2.9709,2.9706,2.9705,2.9678,2.9707,2.9706,2.9705,2.9705,2.9625,2.9623,0,0,0,0,0,0,2.9703,2.9703,2.9685,2.9685,2.9706,2.9705,2.9706,2.97,2.9703,2.9704,2.9712,2.9714,2.9708,2.9706,2.9705,2.9666,2.9706,2.9705,2.9704,2.9626,2.9624,2.9623,0,0,0,0,0,0,2.9703,2.9701,2.9685,2.9695,2.9693,2.9704,2.9697,2.97,2.9696,2.9703,2.9705,2.9706,2.9709,2.9707,2.9685,2.9667,2.9704,2.9703,2.9627,2.9625,2.9624,2.9589,0,0,0,0,0,0,2.9704,2.9701,2.9689,2.9694,2.9693,2.9666,2.9696,2.9699,2.9694,2.9698,2.9699,2.97,2.9709,2.9687,2.9684,2.9665,2.9702,2.9629,2.9627,2.9624,2.9592,2.9586,2.9581,0,0,0,0,0,2.9705,2.9678,2.9688,2.9686,2.9678,2.9665,2.9664,2.9677,2.9693,2.968,2.9685,2.97,2.9669,2.9685,2.9681,2.9662,2.963,2.9627,2.9624,2.9594,2.9587,2.9581,0,0,0,0,0,0,2.9668,2.9679,2.969,2.9665,2.9664,2.967,2.9655,2.9669,2.9662,2.9665,2.968,2.968,2.9656,2.9657,2.9674,2.963,2.9653,2.9649,2.9631,2.9624,2.9619,2.9619,2.9701,0,0,0,0,0,2.9658,2.9648,2.9657,2.9633,2.9633,2.9644,2.9639,2.9649,2.9648,2.9648,2.9651,2.9648,2.9639,2.9631,2.9622,2.9592,2.9593,2.9578,2.9572,2.9568,2.9564,2.9549,2.9542,2.9613,2.9613,2.9613,0,0,2.9635,2.964,2.9632,2.9626,2.9627,2.9616,2.9643,2.963,2.9621,2.9645,2.9626,2.9628,2.9626,2.96,2.9589,2.96,2.9545,2.9564,2.9561,2.9559,2.9545,2.9538,2.9532,2.9611,2.9612,2.9612,0,0,2.9588,2.959,2.9571,2.9572,2.9574,2.9582,2.9577,2.9582,2.9585,2.9566,2.9584,2.9573,2.9556,2.9554,2.9551,2.9505,2.9519,2.9502,2.9473,2.9459,2.9453,2.9448,2.9432,2.9426,2.9498,2.9498,2.9498,0,2.9559,2.9543,2.956,2.9545,2.9542,2.9566,2.9547,2.9546,2.9543,2.954,2.9554,2.9533,2.9533,2.9508,2.9497,2.9494,2.9489,2.9501,2.9453,2.9448,2.9444,2.9428,2.9422,2.9496,2.9496,2.9497,2.9497,0,2.9508,2.9497,2.9481,2.9481,2.9476,2.9459,2.9472,2.9465,2.9476,2.9483,2.9463,2.9465,2.9457,2.9452,2.9462,2.9428,2.9436,2.945,2.9473,2.9435,2.942,2.9415,2.9493,2.9494,2.9495,2.9495,0,0,2.9436,2.9446,2.944,2.9441,2.9445,2.9436,2.942,2.9415,2.9409,2.9407,2.9394,2.9379,2.9394,2.939,2.94,2.9387,2.9351,2.9403,2.9404,2.9394,2.9315,2.9303,2.9296,2.936,2.9359,2.9358,2.9315,0,2.9391,2.9366,2.9381,2.9353,2.9343,2.9366,2.9352,2.9353,2.9359,2.9351,2.9357,2.9347,2.9366,2.9364,2.9353,2.9358,2.9335,2.9361,2.9348,2.9347,2.9347,2.9289,2.9276,2.9235,2.9309,2.9308,2.9308,0,2.9334,2.9332,2.9303,2.9311,2.9307,2.9295,2.9291,2.9283,2.9285,2.929,2.9287,2.93,2.9285,2.9308,2.9287,2.9304,2.93,2.9302,2.93,2.9299,2.9325,2.9286,2.9222,2.9216,2.9299,2.93,2.93,0,2.9285,2.9274,2.9257,2.9256,2.9264,2.9255,2.9257,2.926,2.9256,2.9253,2.9251,2.9245,2.9241,2.9236,2.9248,2.9264,2.9225,2.9249,2.9229,2.9228,2.9219,2.9219,2.9153,2.9216,2.9216,2.9217,2.9217,0,2.9232,2.9214,2.9235,2.9224,2.9204,2.9222,2.9201,2.9206,2.9209,2.9199,2.9218,2.9207,2.9224,2.9215,2.9224,2.9205,2.9203,2.9207,2.9209,2.9205,2.9204,2.9201,2.9204,2.9215,2.9215,2.9216,2.9216,0,2.9174,2.9187,2.9169,2.9179,2.9181,2.9166,2.9174,2.9164,2.9172,2.9159,2.9157,2.9168,2.9159,2.9171,2.9162,2.9168,2.9143,2.915,2.9143,2.9145,2.9124,2.9125,2.9053,2.9045,2.9113,2.9113,2.9112,0,2.9139,2.9126,2.9135,2.913,2.9132,2.9124,2.9121,2.9138,2.9133,2.9135,2.9124,2.9117,2.9112,2.9097,2.9104,2.9097,2.9104,2.9079,2.9103,2.91,2.9104,2.9104,2.9103,2.9074,2.9073,2.9073,2.9072,0,2.9076,2.9084,2.9079,2.9077,2.9073,2.9071,2.9071,2.9066,2.9083,2.9077,2.9069,2.9066,2.9058,2.9051,2.9047,2.9049,2.9063,2.9065,2.906,2.9055,2.9052,2.9054,2.9129,2.9066,2.9067,2.9067,2.9068,2.9068,2.9029,2.9019,2.9024,2.9018,2.902,2.902,2.9011,2.9019,2.9013,2.9009,2.9019,2.9009,2.9011,2.9008,2.9008,2.9,2.901,2.9003,2.9001,2.8999,2.8996,2.9054,2.8999,2.8999,2.8999,2.8999,2.8999,0,2.8968,2.8972,2.8967,2.8967,2.8963,2.8979,2.898,2.8974,2.8965,2.8967,2.8963,2.8953,2.8947,2.8954,2.8949,2.8941,2.8947,2.8939,2.8939,2.894,2.8986,2.8991,2.8934,2.8934,2.8934,2.8934,2.8934,2.8934,2.8935,2.8919,2.8927,2.8913,2.8918,2.8909,2.8908,2.8908,2.8909,2.8899,2.8894,2.89,2.8904,2.8899,2.8893,2.8896,2.8893,2.8882,2.8887,2.893,2.8936,2.8942,2.8947,2.8881,2.8881,2.8841,2.884,2.884]}]]